Tracking 19125 objects as of 19-Apr-2018
HD Live streaming from Space Station
objects crossing your sky now

COSMOS 1922

Track COSMOS 1922 now!
COSMOS 1922 is classified as:


NORAD ID: 18881
Int'l Code: 1988-013A
Perigee: 5,965.5 km
Apogee: 34,452.7 km
Inclination: 68.8 °
Period: 718.8 minutes
Semi major axis: 26580 km
RCS: 12.0457 m2 (large)
Launch date: February 26, 1988
Source: Commonwealth of Independent States (former USSR) (CIS)
Launch site: PLESETSK MISSILE AND SPACE COMPLEX (PKMTR)
aabbcc
Your satellite tracking list
Your tracking list is empty




NASA's NSSDC Master Catalog

Two Line Element Set (TLE):
1 18881U 88013A   18108.31365575 +.00000596 +00000-0 +00000-0 0  9999
2 18881 068.8163 216.3871 5358738 122.1249 301.0685 02.00340212220728
Source of the keplerian elements: AFSPC